Regional Weather Roundup
Issued by NWS

Home | Current Version | Previous Version | Graphics & Text | Print | Product List | Glossary On
Versions: 1 2 3 4 5 6 7 8 9 10 11 12 13 14 15 16 17 18 19 20 21 22 23 24 25 26 27 28 29 30 31 32 33 34 35 36 37 38 39 40 41 42 43 44 45 46 47 48 49 50
000
ASUS45 KSLC 290610
RWRUT

UTAH REGIONAL WEATHER ROUNDUP
NATIONAL WEATHER SERVICE SALT LAKE CITY UT
1100 PM MST WED JAN 28 2015

UTZ001>011-023>025-290700-

NORTHERN UTAH

CITY           SKY/WX    TMP DP  RH WIND       PRES   REMARKS
BRIGHAM CITY   CLEAR     34  32  93 NW3       30.36S
HILL AFB       CLEAR     38  34  85 E2        30.35S
LOGAN          CLOUDY    38  36  92 CALM      30.38R FOG
OGDEN          CLEAR     35  34  96 W3        30.35S
PROVO AIRPORT  CLEAR     36  30  80 N7        30.36R WCI  30
SALT LAKE CITY PTCLDY    35  33  92 CALM      30.35S
VERNAL         PTCLDY    33  26  75 W5        30.33R WCI  29
WENDOVER       MOCLDY    37  30  75 W9        30.37R WCI  31
HEBER CITY     CLOUDY    32  30  93 CALM      30.35S
WEST JORDAN    CLEAR     34  32  93 CALM      30.36S

$$

UTZ012>022-026-027-290700-

SOUTHERN/CENTRAL UTAH

CITY           SKY/WX    TMP DP  RH WIND       PRES   REMARKS
BLANDING       CLOUDY    37  31  79 N6        30.35S WCI  32
BRYCE CANYON   CLOUDY    31  27  85 N5        30.33S WCI  26
CEDAR CITY     CLOUDY    33  29  85 SE3       30.29R
DELTA          CLOUDY    40  34  81 CALM      30.32S
HANKSVILLE     CLOUDY    34  30  86 CALM      30.31S
MILFORD        PTCLDY    38  31  76 NW13      30.31R WCI  30
MOAB/CYNLANDS  CLEAR     33  29  85 CALM      30.28R
PRICE          PTCLDY    32  24  72 N5        30.30R WCI  27
ST GEORGE      CLEAR     48  39  71 CALM      30.25S
KANAB          CLOUDY    37  34  87 N5        30.31S WCI  34

$$

REGIONAL REPORTS     COLORADO/ARIZONA

CITY           SKY/WX    TMP DP  RH WIND       PRES   REMARKS
CRAIG, CO      CLOUDY    34  30  85 CALM      30.33S
GRAND JUNCTION CLOUDY    38  31  76 E5        30.29R WCI  34
RIFLE          CLOUDY    36  28  73 E5        30.32R WCI  32
MONTROSE       PTCLDY    32  26  78 S7        30.33R WCI  26
CORTEZ         CLEAR     31  26  82 E7        30.30R WCI  24
PAGE, AZ       NOT AVBL
GRAND CANYON   CLOUDY    37  31  78 CALM      30.29R
KINGMAN        CLOUDY    49  42  77 E7        30.21F
FLAGSTAFF      CLOUDY    35  28  75 CALM      30.29S

$$

REGIONAL REPORTS    NEVADA/IDAHO/WYOMING

CITY           SKY/WX    TMP DP  RH WIND       PRES   REMARKS
LAS VEGAS, NV  CLOUDY    58  46  64 SW8       30.16F
ELY            PTCLDY    28  26  92 S9        30.34R WCI  19
ELKO           CLEAR     31  29  92 CALM      30.34R
POCATELLO, ID  CLOUDY    35  35 100 NE7       30.41S FOG     WCI  29
BURLEY         CLOUDY    35  34  96 E5        30.39R WCI  31
EVANSTON, WY   MOCLDY    32  29  88 NW6       30.36S WCI  26
ROCK SPRINGS   CLOUDY    33  29  85 W8        30.34R WCI  26
KEMMERER       CLEAR     28  28 100 NW9       30.36R WCI  20

$$


USA.gov is the U.S. government's official web portal to all federal, state and local government web resources and services.